Weather Roundup
Issued by NWS Chicago, IL

Home | Current Version | Previous Version | Text Only | Print | Product List | Glossary Off
Versions: 1 2 3 4 5 6 7 8 9 10 11 12 13 14 15 16 17 18 19 20 21 22 23 24 25 26 27 28 29 30 31 32 33 34 35 36 37 38 39 40 41 42 43 44 45 46 47 48 49 50

000
NZUS59 KLOT 180606
HRRLOT

CHICAGO AREA WEATHER ROUNDUP
NATIONAL WEATHER SERVICE CHICAGO/ROMEOVILLE IL
100 AM CDT THU SEP 18 2014

NOTE: "FAIR" INDICATES FEW OR NO CLOUDS BELOW 12,000 FEET WITH NO
SIGNIFICANT WEATHER AND/OR OBSTRUCTIONS TO VISIBILITY.

* THESE STATIONS ARE NOT UNDER NWS QUALITY CONTROL. THEY ALSO MAY NOT
  REPORT WEATHER SUCH AS PRECIPITATION OR FOG.

ILZ005-006-012>014-019>023-180700-
NORTHEAST ILLINOIS

CITY           SKY/WX    TMP DP  RH WIND       PRES   REMARKS
OHARE          CLEAR     56  48  74 CALM      30.04R
6HR MIN TEMP:  56; 6HR MAX TEMP:  66;

MIDWAY         CLEAR     59  51  75 CALM      30.04R
6HR MIN TEMP:  58; 6HR MAX TEMP:  65;

AURORA         CLEAR     48  44  86 CALM      30.05R
6HR MIN TEMP:  47; 6HR MAX TEMP:  65;

LANSING*       CLEAR     49  48  96 CALM      30.04S
JOLIET*        CLEAR     48  47  95 CALM      30.05S FOG
WAUKEGAN       CLEAR     47  45  93 CALM      30.04R FOG
6HR MIN TEMP:  47; 6HR MAX TEMP:  59;

DUPAGE AIRPORT CLEAR     51  47  86 CALM      30.04S
6HR MIN TEMP:  50; 6HR MAX TEMP:  65;

WHEELING       CLEAR     52  48  86 CALM      30.06R
6HR MIN TEMP:  52; 6HR MAX TEMP:  63;

KANKAKEE*      CLEAR     50  49  95 CALM      30.05S
MORRIS*        CLEAR     50  50  99 CALM      30.04S
LEWIS AIRPORT* CLEAR     51  49  92 S3        30.04S
NORTHERLY IS     N/A     60  52  74 S2          N/A
$$

WIZ051-052-058>065-066-070>072-180700-
SOUTHEAST WISCONSIN

CITY           SKY/WX    TMP DP  RH WIND       PRES   REMARKS
MILWAUKEE      CLEAR     56  47  71 W3        30.04S
6HR MIN TEMP:  55; 6HR MAX TEMP:  60;

KENOSHA*       CLEAR     48  47  96 W3        30.04S
RACINE*        CLEAR     51  48  89 CALM      30.05S
BURLINGTON     FOG       40  40 100 CALM      30.04S VSB 3/4
WAUKESHA       CLEAR     46  45  93 CALM      30.05S
WEST BEND      CLEAR     50  46  87 NE6       30.06R
$$

INZ001>003-010>013-019-020-180700-
NORTHWEST INDIANA

CITY           SKY/WX    TMP DP  RH WIND       PRES   REMARKS
GARY*          CLEAR     49  47  95 CALM      30.05S FOG
6HR MIN TEMP:  48; 6HR MAX TEMP:  63;

MICHIGAN CITY* NOT AVBL
RENSSELAER*    NOT AVBL
VALPARAISO     CLEAR     49  46  90 CALM      30.05R
$$

LMZ740>746-180700-
SOUTHERN LAKE MICHIGAN

STATION/POSITION TIME  SKY/WX   TEMP WIND        PRES    VSBY
                                AIR  DIR/SP/G
                 (UTC)          (F)  (DEG/KT/KT) (MB)    (MI)
HARRISON CRIB    0600            61  190/  6/  7   N/A
BURNHAM HARBOR   0600            60  180/  2/  3   N/A
CALUMET HARBOR   0500            58  210/  1/  2 1016.0R
BURNS HARBOR     NOT AVBL
MICHIGAN CITY    0600            54  110/  6/  8   N/A
$$

ABBREVIATIONS USED IN REMARKS
   TC - TEMPERATURE IN CELSIUS
  WCI - WIND CHILL INDEX
   HX - HEAT INDEX
  VSB - VISIBILITY
$$


USA.gov is the U.S. government's official web portal to all federal, state and local government web resources and services.